This is the latest recevied weather packets stored in our database for station/object WB3EGK. If no packets are shown the sender has not sent any weather packets the latest 10 day(s).
| Time | Temp. | Humidity | Pressure | Rain* | Wind** | Luminosity | Snow |
|---|---|---|---|---|---|---|---|
| 1778159797 | 8.33° C | 1% | 1010.7 hPa | 0 mm | - | 241 W/m² | - |
| 1778159494 | 7.78° C | 1% | 1010.7 hPa | 0 mm | - | 330 W/m² | - |
| 1778159191 | 7.78° C | 1% | 1010.5 hPa | 0 mm | - | 455 W/m² | - |
| 1778158889 | 7.78° C | 1% | 1010.7 hPa | 0 mm | - | 344 W/m² | - |
| 1778158588 | 6.67° C | 1% | 1010.6 hPa | 0 mm | - | 374 W/m² | - |
| 1778158285 | 6.67° C | 1% | 1010.6 hPa | 0 mm | - | 188 W/m² | - |
| 1778157980 | 6.67° C | 1% | 1010.5 hPa | 0 mm | - | 206 W/m² | - |
| 1778157679 | 6.11° C | 1% | 1010.4 hPa | 0 mm | - | 218 W/m² | - |
| 1778157376 | 6.11° C | 1% | 1010.7 hPa | 0 mm | - | 160 W/m² | - |
| 1778157073 | 6.11° C | 1% | 1010.6 hPa | 0 mm | - | 143 W/m² | - |
| 1778156768 | 6.11° C | 1% | 1010.5 hPa | 0 mm | - | 157 W/m² | - |
| 1778156464 | 6.11° C | 1% | 1010.5 hPa | 0 mm | - | 163 W/m² | - |
| 1778156160 | 6.11° C | 1% | 1010.6 hPa | 0 mm | - | 157 W/m² | - |
| 1778155856 | 5.56° C | 1% | 1010.6 hPa | 0 mm | - | 148 W/m² | - |
| 1778155552 | 5.56° C | 1% | 1010.7 hPa | 0 mm | - | 127 W/m² | - |
| 1778155250 | 5.56° C | 1% | 1010.5 hPa | 0 mm | - | 129 W/m² | - |
| 1778154946 | 5.56° C | 1% | 1010.5 hPa | 0 mm | - | 119 W/m² | - |
| 1778154642 | 5° C | 1% | 1010.5 hPa | 0 mm | - | 124 W/m² | - |
| 1778154338 | 5° C | 1% | 1010.6 hPa | 0 mm | - | 112 W/m² | - |
| 1778154035 | 5° C | 1% | 1010.6 hPa | 0 mm | - | 100 W/m² | - |
| 1778153732 | 4.44° C | 1% | 1010.5 hPa | 0 mm | - | 107 W/m² | - |
| 1778153430 | 5° C | 1% | 1010.4 hPa | 0 mm | - | 79 W/m² | - |
| 1778153127 | 5° C | 1% | 1010.5 hPa | 0 mm | - | 79 W/m² | - |
| 1778152824 | 4.44° C | 1% | 1010.4 hPa | 0 mm | - | 96 W/m² | - |
| 1778152521 | 4.44° C | 1% | 1010.3 hPa | 0 mm | - | 73 W/m² | - |
* Rain latest hour (hover to see other rain measurements)
** Current wind speed in m/s (hover to see current wind gust speed)